{"data":{"norad_id":65666,"epoch":"2026-05-25T02:43:16.402656Z","epoch_age_seconds":55312,"freshness":"FRESH","line1":"1 65666U 25211Q   26145.11338429  .00005967  00000+0  41722-3 0  9994","line2":"2 65666  97.4480 189.0633 0002285 105.2958 254.8521 15.05652106 38548","mean_motion":15.05652106,"eccentricity":0.0002285,"inclination_deg":97.448,"raan_deg":189.0633,"arg_perigee_deg":105.2958,"mean_anomaly_deg":254.8521,"bstar":0.00041722,"rev_number":3854,"period_min":95.63962314147,"perigee_km":547.92172797333,"apogee_km":551.08766022754,"semimajor_km":6927.6416941004,"source":"CELESTRAK","updated_at":"2026-05-25T13:38:20.890826Z"}}